Weather History for Ohio State University, OH

Change the Weather History Date:

Saturday, July 13, 2013

  Actual Average Record
Temperature  
Mean Temperature 74 °F -  
Max Temperature 84 °F 82 °F 89 °F (1996)
Min Temperature 63 °F 61 °F 54 °F (2001)
Cooling Degree Days 8    
Growing Degree Days 24 (Base 50)    
Moisture  
Dew Point 63 °F    
Average Humidity 71    
Maximum Humidity 93    
Minimum Humidity 53    
Precipitation  
Precipitation 0.00 in - - ()
Sea Level Pressure  
Sea Level Pressure 30.13 in    
Wind  
Wind Speed 6 mph (ENE)    
Max Wind Speed 14 mph    
Max Gust Speed 21 mph    
Visibility 10 miles    
Events      
Averages and records for this station are not official NWS values.
T = Trace of Precipitation, MM = Missing Value Source: NWS Daily Summary

Daily Weather History Graph

Daily Weather History Graph

Search for Another Location

Airport:

Trip Planner

Search our weather history database for the weather conditions in past years. The results will help you decide how hot, cold, wet, or windy it might be!

Date:

Astronomy

Jul. 13, 2013 Rise Set
Actual Time 6:14 AM EDT 9:01 PM EDT
Civil Twilight 5:42 AM EDT 9:33 PM EDT
Nautical Twilight 5:02 AM EDT 10:13 PM EDT
Astronomical Twilight 4:16 AM EDT 10:59 PM EDT
Moon 11:29 AM EDT (7/13) 11:41 PM EDT (7/13)
Length of Visible Light 15h 50m
Length of Day
14h 46m
Waxing Crescent, 25% of the Moon is Illuminated
Jul 13
Waxing Crescent
Jul 15
First Quarter
Jul 22
Full
Jul 29
Last Quarter
Aug 6
New

Hourly Weather History & Observations

Time (EDT) Temp. Heat Index Dew Point Humidity Pressure Visibility Wind Dir Wind Speed Gust Speed Precip Events Conditions
12:53 AM 66.9 °F - 62.1 °F 84% 30.10 in 10.0 mi North 4.6 mph - N/A   Clear
1:53 AM 66.9 °F - 62.1 °F 84% 30.10 in 10.0 mi East 3.5 mph - N/A   Partly Cloudy
2:53 AM 66.0 °F - 62.1 °F 87% 30.09 in 10.0 mi NNE 3.5 mph - N/A   Mostly Cloudy
3:53 AM 64.9 °F - 61.0 °F 87% 30.09 in 10.0 mi Calm Calm - N/A   Clear
4:53 AM 64.0 °F - 60.1 °F 87% 30.10 in 10.0 mi North 4.6 mph - N/A   Partly Cloudy
5:53 AM 63.0 °F - 60.1 °F 90% 30.10 in 10.0 mi North 5.8 mph - N/A   Partly Cloudy
6:53 AM 64.9 °F - 63.0 °F 93% 30.12 in 8.0 mi North 6.9 mph - N/A   Scattered Clouds
7:53 AM 68.0 °F - 63.0 °F 84% 30.13 in 10.0 mi NE 6.9 mph - N/A   Partly Cloudy
8:53 AM 72.0 °F - 63.0 °F 73% 30.14 in 10.0 mi East 9.2 mph - N/A   Clear
9:53 AM 75.0 °F - 63.0 °F 66% 30.13 in 10.0 mi East 9.2 mph - N/A   Clear
10:53 AM 77.0 °F - 64.0 °F 64% 30.13 in 10.0 mi East 9.2 mph - N/A   Clear
11:53 AM 79.0 °F - 64.0 °F 60% 30.14 in 10.0 mi ESE 10.4 mph - N/A   Scattered Clouds
12:53 PM 79.0 °F - 64.0 °F 60% 30.14 in 10.0 mi East 5.8 mph - N/A   Scattered Clouds
1:53 PM 82.9 °F 84.4 °F 64.0 °F 53% 30.14 in 10.0 mi East 13.8 mph 20.7 mph N/A   Scattered Clouds
2:53 PM 81.0 °F 82.7 °F 64.9 °F 58% 30.12 in 10.0 mi East 8.1 mph - N/A   Mostly Cloudy
3:53 PM 84.0 °F 85.8 °F 64.9 °F 53% 30.12 in 10.0 mi SE 10.4 mph - N/A   Scattered Clouds
4:53 PM 82.0 °F 83.4 °F 64.0 °F 54% 30.12 in 10.0 mi East 9.2 mph 18.4 mph N/A   Mostly Cloudy
5:53 PM 81.0 °F 82.5 °F 64.0 °F 56% 30.12 in 10.0 mi ESE 6.9 mph - N/A   Scattered Clouds
6:53 PM 80.1 °F 81.5 °F 63.0 °F 56% 30.13 in 10.0 mi ESE 10.4 mph - N/A   Partly Cloudy
7:53 PM 81.0 °F 82.7 °F 64.9 °F 58% 30.13 in 10.0 mi East 8.1 mph - N/A   Clear
8:53 PM 77.0 °F - 64.9 °F 66% 30.14 in 10.0 mi East 4.6 mph - N/A   Clear
9:53 PM 75.0 °F - 64.9 °F 71% 30.16 in 10.0 mi ENE 3.5 mph - N/A   Clear
10:53 PM 73.0 °F - 66.0 °F 79% 30.17 in 10.0 mi ENE 3.5 mph - N/A   Clear
11:53 PM 73.0 °F - 66.0 °F 79% 30.18 in 10.0 mi East 3.5 mph - N/A   Clear